Location: Monteux
(44.0348°N, 4.9972°E)
Time: 18:32:15
(UTC+00:00)

Meteor 1-25 Rocket - Pass Details

Date: 30 November 2020
Orbit: 838 x 890 km, 81.2° (Epoch: 22 January)

Event Time Altitude Azimuth Distance (km) Brightness Sun altitude
Rises 16:39:20 0° 354° (N) 3,423 7.2 -6.6°
Reaches altitude 10° 16:41:50 10° 360° (N) 2,490 6.4 -7.0°
Maximum altitude 16:47:19 50° 75° (ENE) 1,089 4.4 -7.9°
Drops below altitude 10° 16:52:50 10° 150° (SSE) 2,508 6.6 -8.8°
Sets 16:55:21 0° 156° (SSE) 3,450 7.4 -9.2°
